TimeEST,TemperatureF,Dew PointF,Humidity,Sea Level PressureIn,VisibilityMPH,Wind Direction,Wind SpeedMPH,Gust SpeedMPH,PrecipitationIn,Events,Conditions,WindDirDegrees,DateUTC
12:00 AM,33.3,26.1,75,30.00,-9999.0,North,2.3,-,N/A,,Unknown,360,2012-12-07 05:00:00
1:00 AM,33,26,67,29.99,,SSE,2.3,,,,,150,2012-12-07 06:00:00
1:00 AM,33.1,26.2,76,29.99,-9999.0,SSE,2.3,-,N/A,,Unknown,150,2012-12-07 06:00:00
2:00 AM,33.4,27.0,77,29.99,-9999.0,West,1.2,-,N/A,,Unknown,280,2012-12-07 07:00:00
3:00 AM,33.4,27.1,78,29.98,-9999.0,South,3.5,-,N/A,,Unknown,190,2012-12-07 08:00:00
4:00 AM,37.2,28.6,71,29.95,-9999.0,South,5.8,-,N/A,,Unknown,180,2012-12-07 09:00:00
5:00 AM,38.7,29.8,71,29.94,-9999.0,South,5.8,-,N/A,,Unknown,190,2012-12-07 10:00:00
6:00 AM,38.3,31.5,76,29.94,-9999.0,South,2.3,-,N/A,,Unknown,190,2012-12-07 11:00:00
7:00 AM,38,32,72,29.94,,Calm,Calm,,,,,,2012-12-07 12:00:00
7:00 AM,38.1,31.8,78,29.94,-9999.0,Calm,Calm,-,N/A,,Unknown,0,2012-12-07 12:00:00
8:00 AM,39.9,33.4,78,29.95,-9999.0,West,2.3,-,N/A,,Unknown,260,2012-12-07 13:00:00
9:00 AM,42.1,33.8,72,29.95,-9999.0,South,4.6,-,N/A,,Unknown,190,2012-12-07 14:00:00
10:00 AM,44.1,34.9,70,29.94,-9999.0,West,2.3,-,N/A,,Unknown,270,2012-12-07 15:00:00
11:00 AM,45.1,35.8,70,29.96,-9999.0,West,5.8,-,N/A,,Unknown,260,2012-12-07 16:00:00
12:00 PM,45.9,36.5,70,29.94,-9999.0,WSW,5.8,-,N/A,,Unknown,250,2012-12-07 17:00:00
1:00 PM,47,38,61,29.92,,WSW,5.8,,,,,250,2012-12-07 18:00:00
1:00 PM,47.3,37.9,70,29.92,-9999.0,WSW,5.8,-,N/A,,Unknown,250,2012-12-07 18:00:00
2:00 PM,47.3,37.8,69,29.90,-9999.0,SSW,4.6,-,N/A,,Unknown,200,2012-12-07 19:00:00
3:00 PM,46.6,38.7,74,29.91,-9999.0,SW,6.9,-,N/A,,Unknown,220,2012-12-07 20:00:00
4:00 PM,46.0,39.7,79,29.92,-9999.0,SW,4.6,-,N/A,,Unknown,230,2012-12-07 21:00:00
5:00 PM,45.0,39.7,82,29.92,-9999.0,SW,3.5,-,N/A,,Unknown,220,2012-12-07 22:00:00
6:00 PM,43.0,40.3,90,29.93,-9999.0,NE,2.3,-,N/A,,Unknown,40,2012-12-07 23:00:00
7:00 PM,43,40,85,29.94,,Calm,Calm,,,,,,2012-12-08 00:00:00
7:00 PM,42.8,39.9,90,29.94,-9999.0,Calm,Calm,-,N/A,,Unknown,0,2012-12-08 00:00:00
8:00 PM,43.0,39.9,89,29.94,-9999.0,NE,4.6,-,N/A,,Unknown,40,2012-12-08 01:00:00
9:00 PM,43.2,39.7,88,29.93,-9999.0,East,3.5,-,N/A,,Unknown,100,2012-12-08 02:00:00
10:00 PM,42.8,39.7,89,29.92,-9999.0,East,1.2,-,N/A,,Unknown,100,2012-12-08 03:00:00
11:00 PM,42.6,39.9,90,29.91,-9999.0,ENE,2.3,-,N/A,,Unknown,70,2012-12-08 04:00:00